Powrót do katalogu

SATURN

AktywnyNaukaSSO
NORAD 57174·PAYLOAD·🇷🇺 Russia
Ta nazwa satelity nie została jeszcze potwierdzona przez oficjalne źródła.

Wystrzelony Jun 27, 2023 z Vostochny Cosmodrome

Loading…

Następne Przeloty (najbliższe 24 godziny)

TLE

ŚwieżeSource: Space-Track

Epoka: Sep 14, 2026, 14:22 UTC

1 57174U 23091J   26257.59918380  .00002432  00000-0  13572-3 0  9996
2 57174  97.4960 309.4089 0012701 191.9729 168.1203 15.14437949177163

Śledź SATURN w czasie rzeczywistym z AllMySat

Download on the App Store